QPF
0.20 0.20 0.19 0.19 0.21 0.21 0.23 0.25 0.24 0.23 0.22 0.19 0.15 0.10 0.05 0.03 0.03 0.03 0.02 0.02 0.03 0.05 0.08 0.11 0.11 0.09 0.08 0.06 0.04 0.03 0.02 0.02 0.01 0.00 0.00 0.00 0.01 0.01 0.01 0.01 0.01 0.00 0.00
0.28 0.30 0.27 0.22 0.21 0.19 0.20 0.23 0.23 0.25 0.24 0.23 0.19 0.14 0.09 0.08 0.07 0.06 0.04 0.03 0.04 0.06 0.08 0.12 0.14 0.13 0.12 0.10 0.08 0.05 0.03 0.02 0.02 0.01 0.00 0.00 0.01 0.01 0.01 0.01 0.01 0.01 0.00
0.29 0.25 0.22 0.20 0.20 0.17 0.16 0.20 0.21 0.22 0.23 0.22 0.20 0.17 0.12 0.10 0.09 0.09 0.09 0.08 0.06 0.07 0.11 0.12 0.14 0.14 0.13 0.12 0.12 0.10 0.07 0.05 0.04 0.03 0.01 0.01 0.01 0.01 0.01 0.01 0.01 0.01 0.01
0.23 0.20 0.18 0.15 0.14 0.13 0.15 0.19 0.21 0.23 0.23 0.22 0.18 0.15 0.13 0.11 0.08 0.07 0.08 0.11 0.12 0.07 0.09 0.14 0.14 0.15 0.16 0.17 0.16 0.14 0.11 0.07 0.05 0.04 0.03 0.02 0.02 0.01 0.01 0.01 0.02 0.01 0.01
0.12 0.12 0.11 0.09 0.09 0.10 0.13 0.15 0.17 0.19 0.19 0.17 0.16 0.14 0.13 0.13 0.10 0.09 0.09 0.09 0.09 0.08 0.06 0.07 0.13 0.15 0.18 0.20 0.20 0.16 0.12 0.08 0.06 0.05 0.04 0.04 0.03 0.02 0.01 0.01 0.02 0.02 0.01
0.05 0.05 0.04 0.04 0.05 0.06 0.07 0.09 0.12 0.13 0.12 0.12 0.13 0.12 0.11 0.12 0.12 0.11 0.09 0.09 0.08 0.07 0.07 0.06 0.07 0.09 0.14 0.17 0.17 0.16 0.14 0.11 0.08 0.06 0.05 0.04 0.04 0.03 0.01 0.01 0.01 0.02 0.01
0.02 0.02 0.02 0.02 0.02 0.04 0.05 0.07 0.08 0.09 0.10 0.12 0.15 0.13 0.11 0.10 0.10 0.08 0.08 0.09 0.08 0.07 0.06 0.06 0.07 0.06 0.07 0.10 0.13 0.13 0.14 0.13 0.11 0.09 0.07 0.05 0.04 0.03 0.03 0.02 0.01 0.01 0.01
0.00 0.01 0.00 0.00 0.00 0.01 0.02 0.04 0.06 0.07 0.07 0.09 0.11 0.12 0.13 0.11 0.09 0.07 0.06 0.06 0.06 0.07 0.06 0.05 0.06 0.08 0.06 0.05 0.05 0.08 0.12 0.14 0.13 0.11 0.09 0.07 0.05 0.03 0.02 0.02 0.01 0.00 0.01
0.00 0.00 0.00 0.00 0.00 0.01 0.01 0.02 0.03 0.05 0.08 0.08 0.07 0.09 0.10 0.09 0.08 0.06 0.05 0.05 0.05 0.06 0.05 0.06 0.06 0.06 0.07 0.07 0.06 0.05 0.08 0.11 0.13 0.14 0.11 0.09 0.06 0.03 0.02 0.02 0.02 0.01 0.01
0.00 0.00 0.00 0.00 0.00 0.02 0.04 0.05 0.04 0.04 0.06 0.09 0.10 0.09 0.08 0.07 0.08 0.06 0.05 0.05 0.06 0.06 0.06 0.06 0.05 0.04 0.04 0.05 0.06 0.05 0.04 0.06 0.08 0.12 0.13 0.10 0.09 0.05 0.02 0.02 0.04 0.03 0.01
0.00 0.00 0.00 0.00 0.00 0.01 0.02 0.04 0.07 0.07 0.06 0.06 0.08 0.11 0.10 0.08 0.07 0.07 0.05 0.05 0.06 0.06 0.07 0.07 0.06 0.04 0.03 0.03 0.03 0.04 0.04 0.04 0.04 0.08 0.11 0.10 0.09 0.07 0.05 0.05 0.06 0.06 0.04
0.00 0.00 0.01 0.00 0.00 0.00 0.00 0.00 0.01 0.04 0.06 0.06 0.08 0.09 0.10 0.10 0.10 0.08 0.08 0.06 0.06 0.06 0.07 0.07 0.06 0.05 0.04 0.03 0.03 0.03 0.04 0.04 0.04 0.05 0.06 0.08 0.10 0.10 0.08 0.07 0.07 0.08 0.07
0.00 0.00 0.00 0.00 0.00 0.00 0.00 0.00 0.00 0.01 0.01 0.02 0.04 0.06 0.08 0.10 0.10 0.10 0.08 0.07 0.06 0.05 0.06 0.06 0.06 0.06 0.06 0.04 0.03 0.04 0.04 0.04 0.04 0.04 0.04 0.05 0.07 0.07 0.06 0.06 0.07 0.08 0.09
0.00 0.00 0.00 0.01 0.01 0.01 0.01 0.00 0.00 0.01 0.01 0.01 0.02 0.02 0.04 0.07 0.09 0.11 0.11 0.09 0.08 0.06 0.05 0.05 0.04 0.05 0.05 0.04 0.04 0.04 0.03 0.03 0.04 0.03 0.03 0.03 0.04 0.04 0.04 0.04 0.04 0.05 0.06
0.00 0.00 0.00 0.00 0.00 0.01 0.01 0.01 0.01 0.00 0.01 0.01 0.01 0.02 0.03 0.05 0.07 0.08 0.10 0.10 0.10 0.09 0.06 0.05 0.05 0.04 0.04 0.04 0.05 0.05 0.03 0.03 0.04 0.03 0.03 0.03 0.03 0.02 0.02 0.03 0.03 0.03 0.03
0.00 0.00 0.00 0.00 0.00 0.00 0.01 0.01 0.00 0.00 0.00 0.00 0.00 0.01 0.02 0.03 0.06 0.08 0.09 0.10 0.09 0.09 0.09 0.06 0.05 0.05 0.04 0.04 0.04 0.04 0.04 0.05 0.05 0.04 0.03 0.03 0.04 0.03 0.02 0.02 0.03 0.02 0.02
0.00 0.00 0.00 0.00 0.00 0.00 0.00 0.00 0.00 0.00 0.00 0.00 0.00 0.00 0.01 0.02 0.03 0.06 0.09 0.10 0.09 0.08 0.09 0.09 0.07 0.06 0.05 0.05 0.05 0.05 0.05 0.05 0.04 0.04 0.04 0.04 0.04 0.04 0.03 0.03 0.03 0.02 0.02
0.00 0.00 0.00 0.00 0.00 0.00 0.00 0.00 0.00 0.00 0.00 0.00 0.00 0.00 0.00 0.01 0.01 0.03 0.07 0.10 0.11 0.09 0.09 0.10 0.10 0.08 0.07 0.08 0.07 0.06 0.06 0.05 0.04 0.04 0.04 0.04 0.03 0.03 0.03 0.02 0.02 0.02 0.02
0.00 0.00 0.00 0.00 0.00 0.00 0.00 0.00 0.01 0.01 0.00 0.00 0.00 0.00 0.00 0.00 0.01 0.01 0.03 0.07 0.10 0.11 0.10 0.09 0.09 0.10 0.10 0.09 0.08 0.06 0.05 0.05 0.04 0.03 0.03 0.03 0.02 0.02 0.02 0.02 0.02 0.01 0.01
0.00 0.00 0.00 0.00 0.00 0.01 0.01 0.00 0.01 0.01 0.01 0.01 0.01 0.00 0.00 0.00 0.00 0.01 0.01 0.03 0.06 0.09 0.10 0.10 0.09 0.10 0.13 0.12 0.11 0.07 0.06 0.05 0.04 0.04 0.03 0.02 0.02 0.02 0.02 0.02 0.02 0.01 0.01
0.00 0.00 0.00 0.00 0.00 0.00 0.00 0.00 0.00 0.00 0.00 0.00 0.00 0.00 0.00 0.00 0.00 0.00 0.01 0.02 0.03 0.05 0.07 0.09 0.10 0.10 0.13 0.16 0.15 0.10 0.08 0.07 0.06 0.04 0.03 0.02 0.02 0.01 0.01 0.01 0.01 0.01 0.01
0.00 0.00 0.00 0.00 0.00 0.00 0.00 0.00 0.00 0.00 0.00 0.00 0.00 0.00 0.00 0.00 0.01 0.00 0.00 0.01 0.02 0.03 0.04 0.05 0.08 0.11 0.12 0.14 0.17 0.16 0.11 0.08 0.06 0.04 0.03 0.02 0.02 0.01 0.01 0.00 0.00 0.01 0.01
0.00 0.00 0.00 0.00 0.00 0.00 0.00 0.00 0.00 0.00 0.00 0.00 0.00 0.00 0.01 0.01 0.01 0.01 0.01 0.01 0.01 0.02 0.03 0.04 0.05 0.07 0.11 0.13 0.17 0.20 0.16 0.12 0.07 0.05 0.03 0.02 0.02 0.01 0.01 0.01 0.01 0.00 0.01
0.00 0.00 0.00 0.00 0.00 0.00 0.00 0.00 0.00 0.00 0.00 0.00 0.00 0.01 0.01 0.01 0.01 0.01 0.01 0.02 0.01 0.02 0.02 0.03 0.04 0.06 0.08 0.14 0.16 0.20 0.19 0.18 0.14 0.10 0.07 0.04 0.02 0.01 0.01 0.01 0.01 0.01 0.01
0.00 0.00 0.00 0.00 0.00 0.00 0.00 0.00 0.00 0.00 0.00 0.00 0.01 0.01 0.01 0.01 0.01 0.01 0.01 0.02 0.02 0.02 0.03 0.03 0.04 0.06 0.09 0.13 0.20 0.25 0.25 0.20 0.18 0.14 0.11 0.08 0.04 0.02 0.01 0.01 0.01 0.02 0.01
0.01 0.01 0.01 0.01 0.01 0.01 0.01 0.01 0.01 0.01 0.01 0.01 0.01 0.01 0.01 0.01 0.02 0.02 0.02 0.01 0.02 0.02 0.02 0.03 0.04 0.04 0.06 0.10 0.18 0.24 0.23 0.19 0.15 0.14 0.10 0.09 0.07 0.04 0.03 0.02 0.01 0.01 0.01
MSLP
1014.11 1014.13 1014.14 1014.16 1014.20 1014.28 1014.42 1014.59 1014.80 1015.03 1015.25 1015.46 1015.65 1015.82 1015.97 1016.11 1016.23 1016.35 1016.47 1016.59 1016.72 1016.85 1017.01 1017.19 1017.41 1017.68 1017.99 1018.34 1018.73 1019.12 1019.53 1019.93 1020.32 1020.71 1021.09 1021.47 1021.86 1022.26 1022.66 1023.06 1023.43 1023.79 1024.11
1013.87 1013.89 1013.92 1013.97 1014.05 1014.17 1014.33 1014.52 1014.71 1014.91 1015.09 1015.25 1015.38 1015.48 1015.56 1015.63 1015.70 1015.77 1015.84 1015.94 1016.05 1016.20 1016.38 1016.61 1016.88 1017.20 1017.56 1017.95 1018.36 1018.77 1019.19 1019.59 1019.99 1020.38 1020.77 1021.18 1021.59 1022.01 1022.44 1022.86 1023.26 1023.63 1023.98
1013.61 1013.67 1013.75 1013.87 1014.02 1014.20 1014.39 1014.59 1014.77 1014.93 1015.05 1015.13 1015.17 1015.18 1015.17 1015.15 1015.13 1015.12 1015.13 1015.18 1015.27 1015.42 1015.62 1015.88 1016.21 1016.58 1016.99 1017.43 1017.87 1018.31 1018.73 1019.14 1019.54 1019.93 1020.34 1020.75 1021.18 1021.63 1022.09 1022.54 1022.97 1023.38 1023.76
1013.38 1013.49 1013.64 1013.84 1014.07 1014.32 1014.56 1014.77 1014.93 1015.05 1015.09 1015.09 1015.03 1014.93 1014.81 1014.68 1014.56 1014.45 1014.39 1014.37 1014.42 1014.54 1014.74 1015.03 1015.40 1015.82 1016.29 1016.77 1017.26 1017.73 1018.17 1018.59 1018.99 1019.39 1019.80 1020.22 1020.68 1021.15 1021.64 1022.12 1022.60 1023.05 1023.46
1013.20 1013.35 1013.58 1013.85 1014.16 1014.47 1014.74 1014.96 1015.11 1015.17 1015.15 1015.06 1014.91 1014.72 1014.50 1014.26 1014.04 1013.83 1013.67 1013.57 1013.55 1013.63 1013.81 1014.10 1014.49 1014.96 1015.47 1016.01 1016.54 1017.04 1017.51 1017.95 1018.37 1018.78 1019.19 1019.64 1020.11 1020.60 1021.12 1021.65 1022.16 1022.65 1023.11
1013.10 1013.27 1013.54 1013.87 1014.22 1014.57 1014.86 1015.08 1015.21 1015.23 1015.16 1015.01 1014.79 1014.52 1014.23 1013.91 1013.60 1013.30 1013.04 1012.84 1012.74 1012.75 1012.89 1013.16 1013.55 1014.03 1014.58 1015.16 1015.74 1016.29 1016.80 1017.27 1017.71 1018.13 1018.57 1019.02 1019.51 1020.03 1020.58 1021.13 1021.68 1022.21 1022.70
1013.06 1013.23 1013.50 1013.84 1014.20 1014.55 1014.84 1015.05 1015.15 1015.15 1015.05 1014.87 1014.63 1014.34 1014.01 1013.64 1013.27 1012.89 1012.55 1012.26 1012.06 1011.98 1012.05 1012.26 1012.62 1013.10 1013.67 1014.28 1014.89 1015.49 1016.04 1016.55 1017.02 1017.48 1017.94 1018.41 1018.92 1019.46 1020.03 1020.60 1021.17 1021.73 1022.25
1013.10 1013.22 1013.44 1013.74 1014.08 1014.39 1014.65 1014.83 1014.91 1014.90 1014.81 1014.64 1014.42 1014.15 1013.82 1013.46 1013.06 1012.63 1012.21 1011.84 1011.54 1011.36 1011.33 1011.46 1011.77 1012.21 1012.77 1013.39 1014.03 1014.66 1015.25 1015.81 1016.32 1016.81 1017.30 1017.80 1018.33 1018.88 1019.46 1020.05 1020.63 1021.20 1021.73
1013.20 1013.24 1013.38 1013.60 1013.85 1014.10 1014.30 1014.44 1014.51 1014.50 1014.43 1014.32 1014.15 1013.94 1013.67 1013.35 1012.95 1012.51 1012.03 1011.58 1011.18 1010.89 1010.75 1010.79 1011.01 1011.39 1011.91 1012.51 1013.16 1013.81 1014.43 1015.02 1015.57 1016.10 1016.62 1017.15 1017.70 1018.27 1018.86 1019.45 1020.03 1020.60 1021.14
1013.36 1013.30 1013.33 1013.44 1013.58 1013.73 1013.86 1013.95 1013.99 1014.00 1013.97 1013.92 1013.84 1013.72 1013.53 1013.27 1012.91 1012.47 1011.97 1011.45 1010.96 1010.57 1010.32 1010.24 1010.36 1010.66 1011.11 1011.66 1012.28 1012.93 1013.56 1014.17 1014.76 1015.32 1015.88 1016.43 1017.00 1017.59 1018.18 1018.77 1019.35 1019.91 1020.44
1013.56 1013.39 1013.31 1013.29 1013.32 1013.36 1013.40 1013.43 1013.44 1013.46 1013.48 1013.50 1013.50 1013.48 1013.38 1013.19 1012.88 1012.46 1011.95 1011.39 1010.84 1010.36 1010.00 1009.82 1009.83 1010.02 1010.38 1010.86 1011.43 1012.03 1012.65 1013.26 1013.86 1014.45 1015.04 1015.63 1016.22 1016.82 1017.42 1018.02 1018.59 1019.14 1019.66
1013.76 1013.50 1013.32 1013.19 1013.11 1013.04 1012.99 1012.95 1012.94 1012.95 1013.00 1013.07 1013.15 1013.20 1013.18 1013.06 1012.81 1012.42 1011.92 1011.35 1010.76 1010.22 1009.79 1009.51 1009.41 1009.50 1009.75 1010.14 1010.62 1011.16 1011.73 1012.32 1012.92 1013.52 1014.13 1014.75 1015.37 1015.99 1016.61 1017.21 1017.78 1018.32 1018.83
1013.93 1013.62 1013.36 1013.14 1012.96 1012.80 1012.67 1012.57 1012.51 1012.51 1012.56 1012.66 1012.78 1012.88 1012.92 1012.85 1012.66 1012.31 1011.84 1011.28 1010.69 1010.13 1009.65 1009.31 1009.13 1009.11 1009.26 1009.54 1009.92 1010.37 1010.88 1011.42 1012.00 1012.60 1013.22 1013.86 1014.51 1015.16 1015.80 1016.40 1016.97 1017.51 1018.00
1014.02 1013.69 1013.39 1013.11 1012.86 1012.63 1012.43 1012.27 1012.17 1012.13 1012.17 1012.27 1012.39 1012.52 1012.58 1012.56 1012.40 1012.10 1011.68 1011.17 1010.61 1010.07 1009.59 1009.22 1008.99 1008.90 1008.95 1009.12 1009.39 1009.75 1010.17 1010.65 1011.19 1011.78 1012.41 1013.07 1013.75 1014.43 1015.09 1015.70 1016.27 1016.79 1017.27
1013.98 1013.66 1013.35 1013.05 1012.76 1012.48 1012.23 1012.03 1011.88 1011.81 1011.81 1011.88 1011.99 1012.10 1012.17 1012.16 1012.05 1011.80 1011.45 1011.01 1010.53 1010.04 1009.61 1009.25 1009.00 1008.87 1008.84 1008.92 1009.10 1009.35 1009.69 1010.10 1010.60 1011.17 1011.80 1012.48 1013.19 1013.89 1014.56 1015.19 1015.75 1016.25 1016.69
1013.79 1013.49 1013.19 1012.89 1012.59 1012.30 1012.03 1011.79 1011.60 1011.49 1011.45 1011.48 1011.55 1011.64 1011.70 1011.70 1011.61 1011.43 1011.16 1010.81 1010.43 1010.04 1009.69 1009.39 1009.16 1009.02 1008.95 1008.97 1009.06 1009.23 1009.49 1009.84 1010.30 1010.84 1011.48 1012.17 1012.89 1013.61 1014.29 1014.91 1015.46 1015.92 1016.32
1013.43 1013.16 1012.88 1012.60 1012.31 1012.02 1011.74 1011.49 1011.29 1011.14 1011.07 1011.05 1011.08 1011.14 1011.18 1011.18 1011.13 1011.01 1010.82 1010.58 1010.32 1010.06 1009.81 1009.60 1009.43 1009.30 1009.23 1009.21 1009.26 1009.37 1009.57 1009.88 1010.30 1010.84 1011.46 1012.16 1012.89 1013.62 1014.30 1014.90 1015.41 1015.82 1016.16
1012.93 1012.68 1012.43 1012.17 1011.90 1011.63 1011.36 1011.11 1010.90 1010.74 1010.63 1010.59 1010.58 1010.60 1010.63 1010.64 1010.61 1010.55 1010.45 1010.32 1010.18 1010.04 1009.92 1009.81 1009.71 1009.64 1009.59 1009.58 1009.60 1009.69 1009.87 1010.15 1010.55 1011.08 1011.70 1012.40 1013.14 1013.85 1014.51 1015.08 1015.54 1015.89 1016.16
1012.35 1012.11 1011.87 1011.63 1011.38 1011.12 1010.87 1010.63 1010.42 1010.26 1010.14 1010.07 1010.05 1010.05 1010.06 1010.07 1010.08 1010.07 1010.04 1010.01 1009.99 1009.96 1009.95 1009.95 1009.94 1009.94 1009.93 1009.94 1009.98 1010.08 1010.25 1010.53 1010.94 1011.46 1012.09 1012.79 1013.51 1014.21 1014.85 1015.37 1015.77 1016.06 1016.24
1011.76 1011.50 1011.26 1011.02 1010.78 1010.54 1010.30 1010.08 1009.88 1009.72 1009.60 1009.52 1009.48 1009.47 1009.48 1009.50 1009.52 1009.55 1009.59 1009.63 1009.70 1009.77 1009.86 1009.94 1010.02 1010.09 1010.15 1010.21 1010.28 1010.41 1010.61 1010.91 1011.33 1011.86 1012.50 1013.19 1013.90 1014.58 1015.18 1015.67 1016.01 1016.23 1016.35
1011.22 1010.94 1010.68 1010.43 1010.18 1009.93 1009.70 1009.48 1009.29 1009.13 1009.01 1008.93 1008.89 1008.88 1008.88 1008.90 1008.94 1009.00 1009.07 1009.17 1009.29 1009.44 1009.59 1009.75 1009.91 1010.05 1010.17 1010.29 1010.42 1010.59 1010.83 1011.17 1011.61 1012.16 1012.80 1013.49 1014.20 1014.85 1015.43 1015.87 1016.18 1016.36 1016.43
1010.79 1010.48 1010.19 1009.90 1009.63 1009.36 1009.11 1008.88 1008.68 1008.52 1008.40 1008.32 1008.28 1008.26 1008.26 1008.29 1008.33 1008.40 1008.50 1008.62 1008.78 1008.97 1009.17 1009.39 1009.60 1009.80 1009.98 1010.16 1010.35 1010.58 1010.87 1011.24 1011.72 1012.29 1012.94 1013.63 1014.32 1014.96 1015.52 1015.95 1016.24 1016.40 1016.45
1010.48 1010.14 1009.81 1009.48 1009.16 1008.86 1008.57 1008.32 1008.10 1007.93 1007.80 1007.71 1007.66 1007.64 1007.64 1007.66 1007.71 1007.78 1007.88 1008.02 1008.20 1008.41 1008.65 1008.90 1009.15 1009.40 1009.64 1009.88 1010.12 1010.40 1010.74 1011.15 1011.65 1012.23 1012.88 1013.57 1014.26 1014.90 1015.45 1015.89 1016.19 1016.37 1016.44
1010.29 1009.91 1009.54 1009.17 1008.80 1008.44 1008.11 1007.82 1007.56 1007.36 1007.21 1007.11 1007.05 1007.02 1007.02 1007.04 1007.09 1007.16 1007.27 1007.42 1007.60 1007.83 1008.09 1008.36 1008.65 1008.94 1009.22 1009.51 1009.80 1010.12 1010.49 1010.93 1011.44 1012.03 1012.68 1013.37 1014.05 1014.69 1015.26 1015.72 1016.06 1016.29 1016.42
1010.15 1009.76 1009.35 1008.94 1008.52 1008.12 1007.74 1007.39 1007.10 1006.86 1006.69 1006.57 1006.49 1006.46 1006.46 1006.48 1006.53 1006.61 1006.73 1006.88 1007.08 1007.31 1007.59 1007.89 1008.20 1008.52 1008.84 1009.16 1009.48 1009.83 1010.22 1010.67 1011.18 1011.76 1012.40 1013.07 1013.75 1014.40 1014.99 1015.50 1015.90 1016.19 1016.40
1010.03 1009.63 1009.21 1008.77 1008.31 1007.87 1007.44 1007.06 1006.73 1006.46 1006.26 1006.12 1006.03 1005.99 1005.99 1006.02 1006.08 1006.17 1006.29 1006.46 1006.67 1006.93 1007.22 1007.54 1007.88 1008.22 1008.57 1008.91 1009.25 1009.61 1010.00 1010.43 1010.93 1011.49 1012.10 1012.75 1013.42 1014.08 1014.70 1015.24 1015.71 1016.08 1016.38
Thickness
5729 5727 5725 5725 5724 5723 5722 5723 5723 5722 5721 5720 5719 5719 5720 5721 5722 5722 5723 5724 5725 5726 5727 5728 5728 5727 5727 5727 5727 5726 5725 5725 5724 5724 5723 5722 5721 5720 5719 5718 5717 5716 5715
5723 5721 5720 5720 5718 5718 5718 5718 5719 5719 5718 5717 5716 5716 5718 5719 5720 5720 5721 5722 5723 5725 5726 5726 5726 5726 5726 5726 5726 5726 5725 5724 5724 5723 5723 5722 5721 5721 5719 5718 5717 5716 5715
5719 5717 5716 5715 5714 5714 5714 5715 5715 5715 5714 5713 5712 5713 5715 5717 5718 5718 5719 5720 5722 5723 5724 5725 5725 5725 5725 5725 5725 5725 5725 5724 5724 5723 5723 5722 5721 5721 5720 5719 5717 5716 5715
5714 5712 5711 5710 5709 5710 5710 5709 5709 5708 5708 5708 5708 5710 5712 5714 5716 5716 5717 5719 5720 5721 5722 5723 5724 5724 5724 5724 5724 5724 5724 5724 5723 5723 5723 5722 5721 5721 5720 5719 5718 5717 5716
5708 5706 5706 5704 5703 5703 5703 5703 5703 5703 5702 5702 5703 5705 5708 5710 5712 5713 5715 5717 5718 5719 5719 5721 5722 5722 5723 5723 5723 5723 5724 5724 5723 5723 5722 5722 5721 5721 5720 5719 5718 5717 5716
5700 5699 5698 5697 5696 5695 5695 5695 5695 5696 5696 5696 5698 5701 5704 5707 5709 5711 5713 5714 5715 5717 5717 5718 5719 5721 5721 5722 5722 5722 5723 5723 5723 5723 5722 5722 5721 5721 5720 5719 5718 5717 5716
5692 5691 5690 5689 5688 5688 5687 5688 5688 5688 5689 5690 5690 5693 5698 5702 5705 5709 5710 5711 5712 5714 5715 5716 5717 5718 5720 5721 5721 5722 5722 5723 5723 5723 5722 5722 5721 5721 5720 5719 5718 5717 5717
5684 5683 5682 5681 5680 5680 5679 5680 5680 5680 5681 5683 5682 5683 5685 5691 5698 5705 5707 5707 5709 5711 5712 5714 5714 5716 5718 5719 5721 5721 5722 5722 5723 5722 5722 5722 5722 5721 5720 5720 5719 5718 5717
5676 5675 5674 5673 5672 5671 5671 5671 5672 5672 5671 5674 5675 5675 5675 5679 5686 5695 5700 5703 5705 5706 5709 5711 5712 5713 5715 5717 5719 5720 5721 5722 5722 5722 5721 5721 5722 5721 5720 5719 5719 5718 5717
5668 5667 5666 5665 5664 5663 5663 5663 5664 5664 5664 5665 5667 5669 5671 5674 5675 5681 5689 5694 5698 5701 5704 5708 5710 5711 5713 5715 5717 5719 5720 5721 5721 5721 5721 5721 5721 5721 5720 5719 5718 5718 5717
5659 5658 5657 5656 5655 5654 5654 5654 5655 5655 5656 5657 5658 5660 5662 5665 5669 5671 5676 5683 5689 5696 5700 5703 5706 5708 5711 5713 5715 5717 5718 5719 5720 5720 5721 5721 5721 5721 5720 5719 5718 5718 5717
5650 5649 5648 5647 5646 5645 5645 5646 5646 5647 5648 5649 5651 5652 5653 5656 5659 5663 5667 5673 5678 5687 5693 5697 5701 5704 5707 5710 5712 5714 5716 5717 5718 5719 5720 5720 5721 5721 5720 5720 5719 5718 5718
5640 5639 5638 5637 5637 5637 5637 5637 5638 5639 5640 5641 5643 5644 5646 5649 5653 5655 5659 5664 5670 5677 5684 5690 5696 5700 5703 5706 5709 5711 5713 5715 5716 5717 5718 5719 5720 5720 5720 5720 5719 5718 5718
5631 5630 5629 5628 5628 5628 5628 5629 5629 5630 5632 5633 5636 5637 5639 5642 5645 5648 5651 5655 5660 5666 5673 5680 5688 5693 5697 5701 5704 5707 5709 5712 5713 5715 5716 5717 5719 5719 5720 5719 5719 5718 5718
5622 5621 5620 5619 5618 5618 5618 5619 5619 5621 5623 5624 5627 5629 5631 5634 5637 5640 5644 5648 5651 5656 5663 5671 5678 5685 5690 5694 5698 5701 5705 5708 5710 5712 5713 5715 5716 5717 5718 5718 5718 5718 5717
5613 5612 5611 5609 5609 5609 5609 5609 5610 5612 5613 5615 5616 5619 5622 5625 5628 5632 5635 5640 5644 5648 5653 5662 5668 5675 5681 5687 5691 5696 5700 5704 5706 5708 5710 5712 5713 5714 5715 5715 5715 5716 5716
5605 5603 5601 5600 5599 5599 5599 5599 5600 5601 5603 5605 5607 5609 5612 5616 5619 5622 5626 5630 5634 5639 5645 5651 5657 5664 5670 5677 5682 5688 5693 5696 5700 5703 5705 5707 5708 5709 5711 5712 5713 5713 5713
5597 5594 5593 5591 5591 5591 5590 5590 5590 5592 5593 5594 5596 5598 5602 5605 5608 5612 5615 5620 5625 5630 5636 5641 5646 5652 5660 5667 5673 5678 5684 5688 5692 5696 5699 5701 5703 5704 5706 5708 5709 5710 5710
5588 5586 5584 5582 5582 5581 5581 5581 5581 5582 5583 5584 5586 5588 5592 5594 5598 5602 5606 5610 5615 5620 5625 5631 5637 5642 5649 5656 5662 5668 5674 5678 5683 5687 5690 5693 5696 5698 5700 5702 5704 5705 5706
5580 5578 5575 5574 5573 5572 5572 5571 5571 5572 5573 5574 5576 5578 5581 5584 5588 5591 5596 5600 5604 5609 5614 5620 5626 5631 5638 5645 5652 5657 5661 5667 5672 5677 5681 5685 5688 5691 5693 5695 5698 5699 5701
5573 5570 5567 5566 5564 5563 5564 5563 5562 5563 5563 5564 5565 5567 5570 5573 5578 5581 5586 5591 5594 5598 5603 5608 5615 5621 5627 5634 5641 5648 5652 5656 5661 5667 5671 5675 5679 5682 5684 5687 5690 5693 5695
5565 5562 5559 5558 5556 5556 5556 5555 5554 5553 5553 5554 5555 5557 5559 5562 5567 5571 5576 5581 5585 5589 5594 5599 5605 5611 5619 5626 5632 5638 5642 5647 5651 5658 5662 5665 5669 5672 5676 5679 5683 5686 5689
5557 5554 5552 5550 5548 5548 5546 5546 5545 5544 5543 5544 5545 5546 5549 5554 5556 5560 5564 5570 5575 5581 5587 5592 5597 5604 5611 5619 5624 5629 5634 5640 5646 5651 5653 5656 5659 5663 5667 5670 5674 5678 5681
5550 5547 5545 5543 5541 5541 5539 5538 5536 5535 5535 5535 5535 5536 5538 5541 5545 5547 5552 5557 5563 5570 5577 5584 5591 5597 5603 5609 5615 5622 5628 5630 5634 5640 5646 5647 5650 5654 5657 5661 5665 5670 5674
5544 5541 5539 5536 5534 5534 5532 5530 5528 5527 5526 5526 5526 5527 5528 5531 5534 5536 5540 5546 5552 5558 5564 5571 5579 5586 5592 5599 5605 5611 5616 5620 5625 5630 5637 5642 5643 5645 5647 5651 5655 5660 5665
5539 5536 5534 5531 5528 5527 5525 5523 5521 5519 5518 5518 5518 5519 5520 5521 5524 5526 5530 5535 5541 5547 5553 5559 5565 5573 5581 5588 5595 5603 5610 5614 5619 5623 5628 5633 5636 5638 5639 5642 5646 5650 5654